Pierceville, KS

4:43 AM CST on February 22, 2017 (GMT -0600)
Garden City Regional

Weather History for KGCK - February, 2013

Change the Weather History Date:

Monday, February 25, 2013

  Actual Average Record
Temperature  
Mean Temperature 26 °F 38 °F  
Max Temperature 32 °F 51 °F 82 °F (1989)
Min Temperature 20 °F 24 °F 0 °F (2003)
Degree Days  
Heating Degree Days 39 27  
Month to date heating degree days 768 766  
Since 1 July heating degree days 3792 3946  
Cooling Degree Days 0 0  
Month to date cooling degree days 0 0  
Year to date cooling degree days 0 0  
Moisture  
Dew Point 25 °F    
Average Humidity 85    
Maximum Humidity 92    
Minimum Humidity 78    
Precipitation  
Precipitation T in 0.03 in 0.50 in (1951)
Month to date precipitation 0.21 0.48  
Year to date precipitation 0.34 0.82  
Sea Level Pressure  
Sea Level Pressure 29.94 in    
Wind  
Wind Speed 25 mph (North)    
Max Wind Speed 38 mph    
Max Gust Speed 43 mph    
Visibility 6 miles    
Events Snow    
T = Trace of Precipitation, MM = Missing Value Source: NWS Daily Summary

Daily Weather History Graph

Daily Weather History Graph

Search for Another Location

Airport or City:

Trip Planner

Search our weather history database for the weather conditions in past years. The results will help you decide how hot, cold, wet, or windy it might be!

Date:

Astronomy

Feb. 25, 2013 Rise Set
Actual Time 7:19 AM CST 6:32 PM CST
Civil Twilight 6:53 AM CST 6:59 PM CST
Nautical Twilight 6:22 AM CST 7:29 PM CST
Astronomical Twilight 5:52 AM CST 8:00 PM CST
Moon 6:46 PM CST (2/25) 6:51 AM CST (2/25)
Length of Visible Light 12h 05m
Length of Day
11h 13m
Full, 100% of the Moon is Illuminated
Feb 25
Full
Feb 25
Full
Mar 4
Last Quarter
Mar 11
New
Mar 19
First Quarter

Hourly Weather History & Observations

Time (CST) Temp. Windchill Dew Point Humidity Pressure Visibility Wind Dir Wind Speed Gust Speed Precip Events Conditions
12:54 AM 28.0 °F 13.0 °F 25.0 °F 88% 29.99 in 4.0 mi North 26.5 mph 34.5 mph N/A   Overcast
1:54 AM 27.0 °F 11.6 °F 25.0 °F 92% 29.99 in 5.0 mi North 26.5 mph - N/A   Overcast
2:54 AM 28.0 °F 12.8 °F 25.0 °F 88% 29.98 in 6.0 mi NNE 27.6 mph 35.7 mph N/A   Overcast
3:54 AM 28.0 °F 13.0 °F 26.1 °F 92% 29.99 in 6.0 mi NNE 26.5 mph 33.4 mph N/A   Overcast
4:54 AM 28.0 °F 11.5 °F 26.1 °F 92% 29.96 in 5.0 mi North 33.4 mph 42.6 mph 0.00 in   Overcast
5:54 AM 28.0 °F 12.3 °F 26.1 °F 92% 29.97 in 8.0 mi North 29.9 mph 39.1 mph 0.00 in   Overcast
6:54 AM 28.0 °F 11.3 °F 26.1 °F 92% 29.97 in 10.0 mi NNE 34.5 mph 40.3 mph 0.00 in   Overcast
7:17 AM 28.4 °F 12.3 °F 24.8 °F 86% 29.90 in 2.0 mi North 32.2 mph 39.1 mph 0.00 in Snow Light Snow
7:24 AM 26.6 °F 10.3 °F 24.8 °F 93% 29.91 in 1.5 mi North 29.9 mph 38.0 mph 0.00 in Snow Light Snow
7:35 AM 26.6 °F 10.3 °F 24.8 °F 93% 29.91 in 0.8 mi North 29.9 mph 36.8 mph 0.00 in Snow Light Snow
7:54 AM 27.0 °F 11.0 °F 24.1 °F 89% 29.99 in 0.8 mi North 28.8 mph 35.7 mph 0.00 in Snow Light Snow
8:21 AM 26.6 °F 10.3 °F 24.8 °F 93% 29.92 in 1.0 mi North 29.9 mph - 0.00 in Snow Light Snow
8:31 AM 26.6 °F 10.0 °F 24.8 °F 93% 29.92 in 0.8 mi North 31.1 mph 38.0 mph 0.00 in Snow Light Snow
8:54 AM 28.0 °F 12.0 °F 24.1 °F 85% 29.99 in 1.2 mi North 31.1 mph - 0.00 in Snow Light Snow
9:04 AM 28.4 °F 12.5 °F 24.8 °F 86% 29.92 in 1.5 mi North 31.1 mph 39.1 mph 0.00 in Snow Light Snow
9:21 AM 28.4 °F 12.5 °F 23.0 °F 80% 29.92 in 2.5 mi North 31.1 mph 36.8 mph 0.00 in Snow Light Snow
9:28 AM 28.4 °F 12.7 °F 23.0 °F 80% 29.92 in 5.0 mi North 29.9 mph - 0.00 in   Haze
9:54 AM 28.9 °F 13.0 °F 24.1 °F 82% 29.99 in 6.0 mi North 32.2 mph 36.8 mph 0.00 in   Haze
10:22 AM 30.2 °F 14.9 °F 26.6 °F 86% 29.92 in 7.0 mi NNE 31.1 mph 41.4 mph N/A   Overcast
10:34 AM 30.2 °F 14.1 °F 26.6 °F 86% 29.91 in 5.0 mi North 35.7 mph 42.6 mph N/A   Overcast
10:54 AM 30.9 °F 15.9 °F 27.0 °F 85% 29.97 in 9.0 mi North 31.1 mph 39.1 mph N/A   Overcast
11:04 AM 30.2 °F 13.9 °F 26.6 °F 86% 29.91 in 9.0 mi North 36.8 mph 42.6 mph N/A   Overcast
11:54 AM 32.0 °F 17.0 °F 27.0 °F 82% 29.98 in 10.0 mi North 33.4 mph 39.1 mph N/A   Overcast
12:54 PM 32.0 °F 17.4 °F 27.0 °F 82% 29.97 in 9.0 mi North 31.1 mph - N/A   Overcast
1:20 PM 32.0 °F 17.4 °F 26.6 °F 80% 29.90 in 3.0 mi North 31.1 mph 34.5 mph 0.00 in Snow Light Snow
1:29 PM 30.2 °F 15.7 °F 26.6 °F 86% 29.90 in 2.0 mi NNE 27.6 mph - 0.00 in Snow Light Snow
1:40 PM 30.2 °F 15.7 °F 26.6 °F 86% 29.90 in 1.5 mi North 27.6 mph - 0.00 in Snow Light Snow
1:47 PM 32.0 °F 18.1 °F 26.6 °F 80% 29.90 in 1.5 mi North 27.6 mph - 0.00 in Snow Light Snow
1:54 PM 32.0 °F 18.1 °F 27.0 °F 82% 29.96 in 2.0 mi NNE 27.6 mph 36.8 mph 0.00 in Snow Light Snow
2:02 PM 32.0 °F 17.2 °F 26.6 °F 80% 29.89 in 4.0 mi North 32.2 mph 38.0 mph 0.00 in Snow Light Snow
2:54 PM 32.0 °F 17.9 °F 26.1 °F 79% 29.95 in 10.0 mi North 28.8 mph 34.5 mph 0.00 in   Overcast
3:54 PM 32.0 °F 19.2 °F 26.1 °F 79% 29.95 in 10.0 mi North 23.0 mph 31.1 mph N/A   Overcast
4:54 PM 30.9 °F 16.9 °F 25.0 °F 79% 29.94 in 10.0 mi North 26.5 mph 32.2 mph N/A   Overcast
5:54 PM 30.9 °F 16.7 °F 24.1 °F 76% 29.93 in 10.0 mi North 27.6 mph 31.1 mph N/A   Overcast
6:34 PM 28.4 °F 17.0 °F 24.8 °F 86% 29.87 in 10.0 mi North 15.0 mph - N/A   Scattered Clouds
6:54 PM 28.0 °F 15.3 °F 23.0 °F 81% 29.94 in 10.0 mi North 18.4 mph - N/A   Clear
7:54 PM 26.6 °F 14.7 °F 21.2 °F 80% 29.87 in 10.0 mi North 15.0 mph - N/A   Clear
8:54 PM 25.0 °F 13.1 °F 21.0 °F 85% 29.95 in 10.0 mi North 13.8 mph - N/A   Clear
9:54 PM 24.1 °F 12.0 °F 19.9 °F 84% 29.95 in 10.0 mi North 13.8 mph - N/A   Clear
10:54 PM 21.9 °F 10.4 °F 18.0 °F 85% 29.95 in 10.0 mi NNW 11.5 mph - N/A   Clear
11:54 PM 19.9 °F 7.3 °F 17.1 °F 89% 29.94 in 10.0 mi NNW 12.7 mph - N/A   Clear